"Time","Value","Approval","myLocation"
"2023-04-20 00:00",12.2606527108561,"Approved","OW409"
"2023-04-20 01:00",12.2616534327083,"Approved","OW409"
"2023-04-20 02:00",12.2606541545606,"Approved","OW409"
"2023-04-20 03:00",12.2616548764129,"Approved","OW409"
"2023-04-20 04:00",12.2616555982651,"Approved","OW409"
"2023-04-20 05:00",12.2606563201174,"Approved","OW409"
"2023-04-20 06:00",12.2606570419697,"Approved","OW409"
"2023-04-20 07:00",12.260657763822,"Approved","OW409"
"2023-04-20 08:00",12.2596584856742,"Approved","OW409"
"2023-04-20 09:00",12.2606592075265,"Approved","OW409"
"2023-04-20 10:00",12.2586599293788,"Approved","OW409"
"2023-04-20 11:00",12.2576606512311,"Approved","OW409"
"2023-04-20 12:00",12.2576613730833,"Approved","OW409"
"2023-04-20 13:00",12.2566620949356,"Approved","OW409"
"2023-04-20 14:00",12.2566628167879,"Approved","OW409"
"2023-04-20 15:00",12.2606635386402,"Approved","OW409"
"2023-04-20 16:00",12.2616642604924,"Approved","OW409"
"2023-04-20 17:00",12.2606649823447,"Approved","OW409"
"2023-04-20 18:00",12.259665704197,"Approved","OW409"
"2023-04-20 19:00",12.2586664260492,"Approved","OW409"
"2023-04-20 20:00",12.2576671479015,"Approved","OW409"
"2023-04-20 21:00",12.2586678697538,"Approved","OW409"
"2023-04-20 22:00",12.2586685916061,"Approved","OW409"
"2023-04-20 23:00",12.2576693134583,"Approved","OW409"
"2023-04-21 00:00",12.2576700353106,"Approved","OW409"
"2023-04-21 01:00",12.2576707571629,"Approved","OW409"
"2023-04-21 02:00",12.2586714790152,"Approved","OW409"
"2023-04-21 03:00",12.2586722008674,"Approved","OW409"
"2023-04-21 04:00",12.2586729227197,"Approved","OW409"
"2023-04-21 05:00",12.256673644572,"Approved","OW409"
"2023-04-21 06:00",12.2556743664242,"Approved","OW409"
"2023-04-21 07:00",12.2556750882765,"Approved","OW409"
"2023-04-21 08:00",12.2556758101288,"Approved","OW409"
"2023-04-21 09:00",12.2556765319811,"Approved","OW409"
"2023-04-21 10:00",12.2556772538333,"Approved","OW409"
"2023-04-21 11:00",12.2556779756856,"Approved","OW409"
"2023-04-21 12:00",12.2556786975379,"Approved","OW409"
"2023-04-21 13:00",12.2556794193902,"Approved","OW409"
"2023-04-21 14:00",12.2556801412424,"Approved","OW409"
"2023-04-21 15:00",12.2556808630947,"Approved","OW409"
"2023-04-21 16:00",12.257681584947,"Approved","OW409"
"2023-04-21 17:00",12.2586823067992,"Approved","OW409"
"2023-04-21 18:00",12.2606830286515,"Approved","OW409"
"2023-04-21 19:00",12.2606837505038,"Approved","OW409"
"2023-04-21 20:00",12.2606844723561,"Approved","OW409"
"2023-04-21 21:00",12.2596851942083,"Approved","OW409"
"2023-04-21 22:00",12.2586859160606,"Approved","OW409"
"2023-04-21 23:00",12.2586866379129,"Approved","OW409"
"2023-04-22 00:00",12.2586873597652,"Approved","OW409"
"2023-04-22 01:00",12.2586880816174,"Approved","OW409"
"2023-04-22 02:00",12.2576888034697,"Approved","OW409"
"2023-04-22 03:00",12.256689525322,"Approved","OW409"
"2023-04-22 04:00",12.2576902471742,"Approved","OW409"
"2023-04-22 05:00",12.2556909690265,"Approved","OW409"
"2023-04-22 06:00",12.2546916908788,"Approved","OW409"
"2023-04-22 07:00",12.2546924127311,"Approved","OW409"
"2023-04-22 08:00",12.2546931345833,"Approved","OW409"
"2023-04-22 09:00",12.2536938564356,"Approved","OW409"
"2023-04-22 10:00",12.2536945782879,"Approved","OW409"
"2023-04-22 11:00",12.2526953001402,"Approved","OW409"
"2023-04-22 12:00",12.2516960219924,"Approved","OW409"
"2023-04-22 13:00",12.2516967438447,"Approved","OW409"
"2023-04-22 14:00",12.251697465697,"Approved","OW409"
"2023-04-22 15:00",12.2536981875493,"Approved","OW409"
"2023-04-22 16:00",12.2526989094015,"Approved","OW409"
"2023-04-22 17:00",12.2546996312538,"Approved","OW409"
"2023-04-22 18:00",12.2547003531061,"Approved","OW409"
"2023-04-22 19:00",12.2547010749583,"Approved","OW409"
"2023-04-22 20:00",12.2537017968106,"Approved","OW409"
"2023-04-22 21:00",12.2537025186629,"Approved","OW409"
"2023-04-22 22:00",12.2537032405152,"Approved","OW409"
"2023-04-22 23:00",12.2527039623674,"Approved","OW409"
"2023-04-23 00:00",12.2537046842197,"Approved","OW409"
"2023-04-23 01:00",12.252705406072,"Approved","OW409"
"2023-04-23 02:00",12.2527061279243,"Approved","OW409"
"2023-04-23 03:00",12.2527068497765,"Approved","OW409"
"2023-04-23 04:00",12.2527075716288,"Approved","OW409"
"2023-04-23 05:00",12.2517082934811,"Approved","OW409"
"2023-04-23 06:00",12.2517090153333,"Approved","OW409"
"2023-04-23 07:00",12.2517097371856,"Approved","OW409"
"2023-04-23 08:00",12.2507104590379,"Approved","OW409"
"2023-04-23 09:00",12.2507111808902,"Approved","OW409"
"2023-04-23 10:00",12.2507119027424,"Approved","OW409"
"2023-04-23 11:00",12.2507126245947,"Approved","OW409"
"2023-04-23 12:00",12.249713346447,"Approved","OW409"
"2023-04-23 13:00",12.2497140682993,"Approved","OW409"
"2023-04-23 14:00",12.2497147901515,"Approved","OW409"
"2023-04-23 15:00",12.2497155120038,"Approved","OW409"
"2023-04-23 16:00",12.2507162338561,"Approved","OW409"
"2023-04-23 17:00",12.2497169557083,"Approved","OW409"
"2023-04-23 18:00",12.2487176775606,"Approved","OW409"
"2023-04-23 19:00",12.2497183994129,"Approved","OW409"
"2023-04-23 20:00",12.2507191212652,"Approved","OW409"
"2023-04-23 21:00",12.2497198431174,"Approved","OW409"
"2023-04-23 22:00",12.2487205649697,"Approved","OW409"
"2023-04-23 23:00",12.248721286822,"Approved","OW409"
"2023-04-24 00:00",12.2497220086743,"Approved","OW409"
"2023-04-24 01:00",12.2487227305265,"Approved","OW409"
"2023-04-24 02:00",12.2487234523788,"Approved","OW409"
"2023-04-24 03:00",12.2487241742311,"Approved","OW409"
"2023-04-24 04:00",12.2477248960833,"Approved","OW409"
"2023-04-24 05:00",12.2497256179356,"Approved","OW409"
"2023-04-24 06:00",12.2477263397879,"Approved","OW409"
"2023-04-24 07:00",12.2477270616402,"Approved","OW409"
"2023-04-24 08:00",12.2487277834924,"Approved","OW409"
"2023-04-24 09:00",12.2487285053447,"Approved","OW409"
"2023-04-24 10:00",12.247729227197,"Approved","OW409"
"2023-04-24 11:00",12.2487299490493,"Approved","OW409"
"2023-04-24 12:00",12.2477306709015,"Approved","OW409"
"2023-04-24 13:00",12.2477313927538,"Approved","OW409"
"2023-04-24 14:00",12.2487321146061,"Approved","OW409"
"2023-04-24 15:00",12.2497328364584,"Approved","OW409"
"2023-04-24 16:00",12.2487335583106,"Approved","OW409"
"2023-04-24 17:00",12.2497342801629,"Approved","OW409"
"2023-04-24 18:00",12.2507350020152,"Approved","OW409"
"2023-04-24 19:00",12.2497357238674,"Approved","OW409"
"2023-04-24 20:00",12.2507364457197,"Approved","OW409"
"2023-04-24 21:00",12.252737167572,"Approved","OW409"
"2023-04-24 22:00",12.2517378894243,"Approved","OW409"
"2023-04-24 23:00",12.2507386112765,"Approved","OW409"
"2023-04-25 00:00",12.2507393331288,"Approved","OW409"
"2023-04-25 01:00",12.2497400549811,"Approved","OW409"
"2023-04-25 02:00",12.2507407768334,"Approved","OW409"
"2023-04-25 03:00",12.2517414986856,"Approved","OW409"
"2023-04-25 04:00",12.2517422205379,"Approved","OW409"
"2023-04-25 05:00",12.2507429423902,"Approved","OW409"
"2023-04-25 06:00",12.2507436642424,"Approved","OW409"
"2023-04-25 07:00",12.2497443860947,"Approved","OW409"
"2023-04-25 08:00",12.249745107947,"Approved","OW409"
"2023-04-25 09:00",12.2497458297993,"Approved","OW409"
"2023-04-25 10:00",12.2487465516515,"Approved","OW409"
"2023-04-25 11:00",12.2487472735038,"Approved","OW409"
"2023-04-25 12:00",12.2487479953561,"Approved","OW409"
"2023-04-25 13:00",12.2477487172084,"Approved","OW409"
"2023-04-25 14:00",12.2487494390606,"Approved","OW409"
"2023-04-25 15:00",12.2487501609129,"Approved","OW409"
"2023-04-25 16:00",12.2497508827652,"Approved","OW409"
"2023-04-25 17:00",12.2497516046174,"Approved","OW409"
"2023-04-25 18:00",12.2497523264697,"Approved","OW409"
"2023-04-25 19:00",12.249753048322,"Approved","OW409"
"2023-04-25 20:00",12.2487537701743,"Approved","OW409"
"2023-04-25 21:00",12.2477544920265,"Approved","OW409"
"2023-04-25 22:00",12.2477552138788,"Approved","OW409"
"2023-04-25 23:00",12.2467559357311,"Approved","OW409"
"2023-04-26 00:00",12.2477566575834,"Approved","OW409"
"2023-04-26 01:00",12.2467573794356,"Approved","OW409"
"2023-04-26 02:00",12.2477581012879,"Approved","OW409"
"2023-04-26 03:00",12.2477588231402,"Approved","OW409"
"2023-04-26 04:00",12.2487595449925,"Approved","OW409"
"2023-04-26 05:00",12.2477602668447,"Approved","OW409"
"2023-04-26 06:00",12.246760988697,"Approved","OW409"
"2023-04-26 07:00",12.2477617105493,"Approved","OW409"
"2023-04-26 08:00",12.2467624324015,"Approved","OW409"
"2023-04-26 09:00",12.2467631542538,"Approved","OW409"
"2023-04-26 10:00",12.2437638761061,"Approved","OW409"
"2023-04-26 11:00",12.2457645979584,"Approved","OW409"
"2023-04-26 12:00",12.2457653198106,"Approved","OW409"
"2023-04-26 13:00",12.2447660416629,"Approved","OW409"
"2023-04-26 14:00",12.2447667635152,"Approved","OW409"
"2023-04-26 15:00",12.2457674853675,"Approved","OW409"
"2023-04-26 16:00",12.2457682072197,"Approved","OW409"
"2023-04-26 17:00",12.244768929072,"Approved","OW409"
"2023-04-26 18:00",12.2447696509243,"Approved","OW409"
"2023-04-26 19:00",12.2437703727765,"Approved","OW409"
"2023-04-26 20:00",12.2447710946288,"Approved","OW409"
"2023-04-26 21:00",12.2447718164811,"Approved","OW409"
"2023-04-26 22:00",12.2427725383334,"Approved","OW409"
"2023-04-26 23:00",12.2437732601856,"Approved","OW409"
"2023-04-27 00:00",12.2427739820379,"Approved","OW409"
"2023-04-27 01:00",12.2427747038902,"Approved","OW409"
"2023-04-27 02:00",12.2437754257425,"Approved","OW409"
"2023-04-27 03:00",12.2437761475947,"Approved","OW409"
"2023-04-27 04:00",12.245776869447,"Approved","OW409"
"2023-04-27 05:00",12.2457775912993,"Approved","OW409"
"2023-04-27 06:00",12.2467783131515,"Approved","OW409"
"2023-04-27 07:00",12.2477790350038,"Approved","OW409"
"2023-04-27 08:00",12.2477797568561,"Approved","OW409"
"2023-04-27 09:00",12.2477804787084,"Approved","OW409"
"2023-04-27 10:00",12.2457812005606,"Approved","OW409"
"2023-04-27 11:00",12.2467819224129,"Approved","OW409"
"2023-04-27 12:00",12.2467826442652,"Approved","OW409"
"2023-04-27 13:00",12.2467833661175,"Approved","OW409"
"2023-04-27 14:00",12.2477840879697,"Approved","OW409"
"2023-04-27 15:00",12.247784809822,"Approved","OW409"
"2023-04-27 16:00",12.2487855316743,"Approved","OW409"
"2023-04-27 17:00",12.2487862535265,"Approved","OW409"
"2023-04-27 18:00",12.2467869753788,"Approved","OW409"
"2023-04-27 19:00",12.2477876972311,"Approved","OW409"
"2023-04-27 20:00",12.2457884190834,"Approved","OW409"
"2023-04-27 21:00",12.2457891409356,"Approved","OW409"
"2023-04-27 22:00",12.2447898627879,"Approved","OW409"
"2023-04-27 23:00",12.2437905846402,"Approved","OW409"
"2023-04-28 00:00",12.2437913064925,"Approved","OW409"
"2023-04-28 01:00",12.2427920283447,"Approved","OW409"
"2023-04-28 02:00",12.243792750197,"Approved","OW409"
"2023-04-28 03:00",12.2457934720493,"Approved","OW409"
"2023-04-28 04:00",12.2457941939016,"Approved","OW409"
"2023-04-28 05:00",12.2447949157538,"Approved","OW409"
"2023-04-28 06:00",12.2437956376061,"Approved","OW409"
"2023-04-28 07:00",12.2437963594584,"Approved","OW409"
"2023-04-28 08:00",12.2437970813106,"Approved","OW409"
"2023-04-28 09:00",12.2417978031629,"Approved","OW409"
"2023-04-28 10:00",12.2427985250152,"Approved","OW409"
"2023-04-28 11:00",12.2417992468675,"Approved","OW409"
"2023-04-28 12:00",12.2417999687197,"Approved","OW409"
"2023-04-28 13:00",12.240800690572,"Approved","OW409"
"2023-04-28 14:00",12.2438014124243,"Approved","OW409"
"2023-04-28 15:00",12.2438021342766,"Approved","OW409"
"2023-04-28 16:00",12.2438028561288,"Approved","OW409"
"2023-04-28 17:00",12.2428035779811,"Approved","OW409"
"2023-04-28 18:00",12.2408042998334,"Approved","OW409"
"2023-04-28 19:00",12.2408050216856,"Approved","OW409"
"2023-04-28 20:00",12.2388057435379,"Approved","OW409"
"2023-04-28 21:00",12.2378064653902,"Approved","OW409"
"2023-04-28 22:00",12.2368071872425,"Approved","OW409"
"2023-04-28 23:00",12.2348079090947,"Approved","OW409"
"2023-04-29 00:00",12.234808630947,"Approved","OW409"
"2023-04-29 01:00",12.2368093527993,"Approved","OW409"
"2023-04-29 02:00",12.2378100746516,"Approved","OW409"
"2023-04-29 03:00",12.2388107965038,"Approved","OW409"
"2023-04-29 04:00",12.2408115183561,"Approved","OW409"
"2023-04-29 05:00",12.2408122402084,"Approved","OW409"
"2023-04-29 06:00",12.2398129620606,"Approved","OW409"
"2023-04-29 07:00",12.2398136839129,"Approved","OW409"
"2023-04-29 08:00",12.2398144057652,"Approved","OW409"
"2023-04-29 09:00",12.2398151276175,"Approved","OW409"
"2023-04-29 10:00",12.2398158494697,"Approved","OW409"
"2023-04-29 11:00",12.238816571322,"Approved","OW409"
"2023-04-29 12:00",12.2378172931743,"Approved","OW409"
"2023-04-29 13:00",12.2378180150266,"Approved","OW409"
"2023-04-29 14:00",12.2388187368788,"Approved","OW409"
"2023-04-29 15:00",12.2398194587311,"Approved","OW409"
"2023-04-29 16:00",12.2398201805834,"Approved","OW409"
"2023-04-29 17:00",12.2398209024356,"Approved","OW409"
"2023-04-29 18:00",12.2378216242879,"Approved","OW409"
"2023-04-29 19:00",12.2358223461402,"Approved","OW409"
"2023-04-29 20:00",12.2338230679925,"Approved","OW409"
"2023-04-29 21:00",12.2338237898447,"Approved","OW409"
"2023-04-29 22:00",12.232824511697,"Approved","OW409"
"2023-04-29 23:00",12.2318252335493,"Approved","OW409"
"2023-04-30 00:00",12.2318259554016,"Approved","OW409"
"2023-04-30 01:00",12.2318266772538,"Approved","OW409"
"2023-04-30 02:00",12.2318273991061,"Approved","OW409"
"2023-04-30 03:00",12.2348281209584,"Approved","OW409"
"2023-04-30 04:00",12.2368288428107,"Approved","OW409"
"2023-04-30 05:00",12.2368295646629,"Approved","OW409"
"2023-04-30 06:00",12.2368302865152,"Approved","OW409"
"2023-04-30 07:00",12.2368310083675,"Approved","OW409"
"2023-04-30 08:00",12.2368317302197,"Approved","OW409"
"2023-04-30 09:00",12.235832452072,"Approved","OW409"
"2023-04-30 10:00",12.2368331739243,"Approved","OW409"
"2023-04-30 11:00",12.2348338957766,"Approved","OW409"
"2023-04-30 12:00",12.2338346176288,"Approved","OW409"
"2023-04-30 13:00",12.2348353394811,"Approved","OW409"
"2023-04-30 14:00",12.2358360613334,"Approved","OW409"
"2023-04-30 15:00",12.2358367831857,"Approved","OW409"
"2023-04-30 16:00",12.2358375050379,"Approved","OW409"
"2023-04-30 17:00",12.2338382268902,"Approved","OW409"
"2023-04-30 18:00",12.2328389487425,"Approved","OW409"
"2023-04-30 19:00",12.2318396705947,"Approved","OW409"
"2023-04-30 20:00",12.230840392447,"Approved","OW409"
"2023-04-30 21:00",12.2298411142993,"Approved","OW409"
"2023-04-30 22:00",12.2298418361516,"Approved","OW409"
"2023-04-30 23:00",12.2288425580038,"Approved","OW409"
"2023-05-01 00:00",12.2278432798561,"Approved","OW409"
"2023-05-01 01:00",12.2288440017084,"Approved","OW409"
"2023-05-01 02:00",12.2298447235607,"Approved","OW409"
"2023-05-01 03:00",12.2318454454129,"Approved","OW409"
"2023-05-01 04:00",12.2328461672652,"Approved","OW409"
"2023-05-01 05:00",12.2318468891175,"Approved","OW409"
"2023-05-01 06:00",12.2338476109697,"Approved","OW409"
"2023-05-01 07:00",12.233848332822,"Approved","OW409"
"2023-05-01 08:00",12.2328490546743,"Approved","OW409"
"2023-05-01 09:00",12.2338497765266,"Approved","OW409"
"2023-05-01 10:00",12.2328504983788,"Approved","OW409"
"2023-05-01 11:00",12.2358512202311,"Approved","OW409"
"2023-05-01 12:00",12.2338519420834,"Approved","OW409"
"2023-05-01 13:00",12.2338526639357,"Approved","OW409"
"2023-05-01 14:00",12.2338533857879,"Approved","OW409"
"2023-05-01 15:00",12.2338541076402,"Approved","OW409"
"2023-05-01 16:00",12.2338548294925,"Approved","OW409"
"2023-05-01 17:00",12.2318555513448,"Approved","OW409"
"2023-05-01 18:00",12.230856273197,"Approved","OW409"
"2023-05-01 19:00",12.2308569950493,"Approved","OW409"
"2023-05-01 20:00",12.2298577169016,"Approved","OW409"
"2023-05-01 21:00",12.2278584387538,"Approved","OW409"
"2023-05-01 22:00",12.2298591606061,"Approved","OW409"
"2023-05-01 23:00",12.2298598824584,"Approved","OW409"
"2023-05-02 00:00",12.2278606043107,"Approved","OW409"
"2023-05-02 01:00",12.2288613261629,"Approved","OW409"
"2023-05-02 02:00",12.2318620480152,"Approved","OW409"
"2023-05-02 03:00",12.2318627698675,"Approved","OW409"
"2023-05-02 04:00",12.2328634917198,"Approved","OW409"
"2023-05-02 05:00",12.232864213572,"Approved","OW409"
"2023-05-02 06:00",12.2338649354243,"Approved","OW409"
"2023-05-02 07:00",12.2338656572766,"Approved","OW409"
"2023-05-02 08:00",12.2338663791288,"Approved","OW409"
"2023-05-02 09:00",12.2338671009811,"Approved","OW409"
"2023-05-02 10:00",12.2338678228334,"Approved","OW409"
"2023-05-02 11:00",12.2328685446857,"Approved","OW409"
"2023-05-02 12:00",12.2328692665379,"Approved","OW409"
"2023-05-02 13:00",12.2338699883902,"Approved","OW409"
"2023-05-02 14:00",12.2348707102425,"Approved","OW409"
"2023-05-02 15:00",12.2328714320948,"Approved","OW409"
"2023-05-02 16:00",12.233872153947,"Approved","OW409"
"2023-05-02 17:00",12.2308728757993,"Approved","OW409"
"2023-05-02 18:00",12.2288735976516,"Approved","OW409"
"2023-05-02 19:00",12.2278743195038,"Approved","OW409"
"2023-05-02 20:00",12.2278750413561,"Approved","OW409"
"2023-05-02 21:00",12.2258757632084,"Approved","OW409"
"2023-05-02 22:00",12.2248764850607,"Approved","OW409"
"2023-05-02 23:00",12.2248772069129,"Approved","OW409"
"2023-05-03 00:00",12.2248779287652,"Approved","OW409"
"2023-05-03 01:00",12.2268786506175,"Approved","OW409"
"2023-05-03 02:00",12.2278793724698,"Approved","OW409"
"2023-05-03 03:00",12.227880094322,"Approved","OW409"
"2023-05-03 04:00",12.2298808161743,"Approved","OW409"
"2023-05-03 05:00",12.2298815380266,"Approved","OW409"
"2023-05-03 06:00",12.2298822598788,"Approved","OW409"
"2023-05-03 07:00",12.2298829817311,"Approved","OW409"
"2023-05-03 08:00",12.2308837035834,"Approved","OW409"
"2023-05-03 09:00",12.2298844254357,"Approved","OW409"
"2023-05-03 10:00",12.2308851472879,"Approved","OW409"
"2023-05-03 11:00",12.2298858691402,"Approved","OW409"
"2023-05-03 12:00",12.2298865909925,"Approved","OW409"
"2023-05-03 13:00",12.2288873128448,"Approved","OW409"
"2023-05-03 14:00",12.230888034697,"Approved","OW409"
"2023-05-03 15:00",12.2298887565493,"Approved","OW409"
"2023-05-03 16:00",12.2298894784016,"Approved","OW409"
"2023-05-03 17:00",12.2268902002539,"Approved","OW409"
"2023-05-03 18:00",12.2278909221061,"Approved","OW409"
"2023-05-03 19:00",12.2258916439584,"Approved","OW409"
"2023-05-03 20:00",12.2258923658107,"Approved","OW409"
"2023-05-03 21:00",12.2238930876629,"Approved","OW409"
"2023-05-03 22:00",12.2248938095152,"Approved","OW409"
"2023-05-03 23:00",12.2248945313675,"Approved","OW409"
"2023-05-04 00:00",12.2258952532198,"Approved","OW409"
"2023-05-04 01:00",12.226895975072,"Approved","OW409"
"2023-05-04 02:00",12.2258966969243,"Approved","OW409"
"2023-05-04 03:00",12.2268974187766,"Approved","OW409"
"2023-05-04 04:00",12.2268981406289,"Approved","OW409"
"2023-05-04 05:00",12.2278988624811,"Approved","OW409"
"2023-05-04 06:00",12.2278995843334,"Approved","OW409"
"2023-05-04 07:00",12.2279003061857,"Approved","OW409"
"2023-05-04 08:00",12.2279010280379,"Approved","OW409"
"2023-05-04 09:00",12.2269017498902,"Approved","OW409"
"2023-05-04 10:00",12.2279024717425,"Approved","OW409"
"2023-05-04 11:00",12.2279031935948,"Approved","OW409"
"2023-05-04 12:00",12.226903915447,"Approved","OW409"
"2023-05-04 13:00",12.2279046372993,"Approved","OW409"
"2023-05-04 14:00",12.2279053591516,"Approved","OW409"
"2023-05-04 15:00",12.2269060810039,"Approved","OW409"
"2023-05-04 16:00",12.2259068028561,"Approved","OW409"
"2023-05-04 17:00",12.2239075247084,"Approved","OW409"
"2023-05-04 18:00",12.2229082465607,"Approved","OW409"
"2023-05-04 19:00",12.2219089684129,"Approved","OW409"
"2023-05-04 20:00",12.2219096902652,"Approved","OW409"
"2023-05-04 21:00",12.2199104121175,"Approved","OW409"
"2023-05-04 22:00",12.2189111339698,"Approved","OW409"
"2023-05-04 23:00",12.218911855822,"Approved","OW409"
"2023-05-05 00:00",12.2189125776743,"Approved","OW409"
"2023-05-05 01:00",12.2189132995266,"Approved","OW409"
"2023-05-05 02:00",12.2209140213789,"Approved","OW409"
"2023-05-05 03:00",12.2229147432311,"Approved","OW409"
"2023-05-05 04:00",12.2219154650834,"Approved","OW409"
"2023-05-05 05:00",12.2239161869357,"Approved","OW409"
"2023-05-05 06:00",12.223916908788,"Approved","OW409"
"2023-05-05 07:00",12.2239176306402,"Approved","OW409"
"2023-05-05 08:00",12.2229183524925,"Approved","OW409"
"2023-05-05 09:00",12.2229190743448,"Approved","OW409"
"2023-05-05 10:00",12.223919796197,"Approved","OW409"
"2023-05-05 11:00",12.2239205180493,"Approved","OW409"
"2023-05-05 12:00",12.2249212399016,"Approved","OW409"
"2023-05-05 13:00",12.2259219617539,"Approved","OW409"
"2023-05-05 14:00",12.2249226836061,"Approved","OW409"
"2023-05-05 15:00",12.2229234054584,"Approved","OW409"
"2023-05-05 16:00",12.2229241273107,"Approved","OW409"
"2023-05-05 17:00",12.221924849163,"Approved","OW409"
"2023-05-05 18:00",12.2229255710152,"Approved","OW409"
"2023-05-05 19:00",12.2219262928675,"Approved","OW409"
"2023-05-05 20:00",12.2239270147198,"Approved","OW409"
"2023-05-05 21:00",12.226927736572,"Approved","OW409"
"2023-05-05 22:00",12.2249284584243,"Approved","OW409"
"2023-05-05 23:00",12.2239291802766,"Approved","OW409"
"2023-05-06 00:00",12.2239299021289,"Approved","OW409"
"2023-05-06 01:00",12.2249306239811,"Approved","OW409"
"2023-05-06 02:00",12.2229313458334,"Approved","OW409"
"2023-05-06 03:00",12.2249320676857,"Approved","OW409"
"2023-05-06 04:00",12.226932789538,"Approved","OW409"
"2023-05-06 05:00",12.2229335113902,"Approved","OW409"
"2023-05-06 06:00",12.2249342332425,"Approved","OW409"
"2023-05-06 07:00",12.2239349550948,"Approved","OW409"
"2023-05-06 08:00",12.223935676947,"Approved","OW409"
"2023-05-06 09:00",12.2239363987993,"Approved","OW409"
"2023-05-06 10:00",12.2239371206516,"Approved","OW409"
"2023-05-06 11:00",12.2229378425039,"Approved","OW409"
"2023-05-06 12:00",12.2239385643561,"Approved","OW409"
"2023-05-06 13:00",12.2219392862084,"Approved","OW409"
"2023-05-06 14:00",12.2219400080607,"Approved","OW409"
"2023-05-06 15:00",12.223940729913,"Approved","OW409"
"2023-05-06 16:00",12.2229414517652,"Approved","OW409"
"2023-05-06 17:00",12.2229421736175,"Approved","OW409"
"2023-05-06 18:00",12.2219428954698,"Approved","OW409"
"2023-05-06 19:00",12.222943617322,"Approved","OW409"
"2023-05-06 20:00",12.2229443391743,"Approved","OW409"
"2023-05-06 21:00",12.2219450610266,"Approved","OW409"
"2023-05-06 22:00",12.2229457828789,"Approved","OW409"
"2023-05-06 23:00",12.2219465047311,"Approved","OW409"
"2023-05-07 00:00",12.2219472265834,"Approved","OW409"
"2023-05-07 01:00",12.2229479484357,"Approved","OW409"
"2023-05-07 02:00",12.221948670288,"Approved","OW409"
"2023-05-07 03:00",12.2239493921402,"Approved","OW409"
"2023-05-07 04:00",12.2239501139925,"Approved","OW409"
"2023-05-07 05:00",12.2219508358448,"Approved","OW409"
"2023-05-07 06:00",12.2229515576971,"Approved","OW409"
"2023-05-07 07:00",12.2229522795493,"Approved","OW409"
"2023-05-07 08:00",12.2219530014016,"Approved","OW409"
"2023-05-07 09:00",12.2219537232539,"Approved","OW409"
"2023-05-07 10:00",12.2219544451061,"Approved","OW409"
"2023-05-07 11:00",12.2209551669584,"Approved","OW409"
"2023-05-07 12:00",12.2219558888107,"Approved","OW409"
"2023-05-07 13:00",12.220956610663,"Approved","OW409"
"2023-05-07 14:00",12.2219573325152,"Approved","OW409"
"2023-05-07 15:00",12.2219580543675,"Approved","OW409"
"2023-05-07 16:00",12.2219587762198,"Approved","OW409"
"2023-05-07 17:00",12.2219594980721,"Approved","OW409"
"2023-05-07 18:00",12.2219602199243,"Approved","OW409"
"2023-05-07 19:00",12.2219609417766,"Approved","OW409"